Tracking 28309 objects as of 1-Dec-2023
HD Live streaming from Space Station
objects crossing your sky now

STARLINK-5050

Track STARLINK-5050 now!
10-day predictions
STARLINK-5050 is classified as:


NORAD ID: 53890
Int'l Code: 2022-119E
Perigee: 545.7 km
Apogee: 548.1 km
Inclination: 53.2 °
Period: 95.4 minutes
Semi major axis: 6917 km
RCS: Unknown
Launch date: September 24, 2022
Source: United States (US)
Launch site: AIR FORCE EASTERN TEST RANGE (AFETR)
Your satellite tracking list
Your tracking list is empty




NASA's NSSDC Master Catalog

Two Line Element Set (TLE):
1 53890U 22119E   23334.47172645  .00013397  00000-0  85820-3 0  9990
2 53890  53.2180  55.8959 0001721  65.9837 294.1335 15.08840153 66426
Source of the keplerian elements: AFSPC